User: anonymous   Login
Location: Deep South Regional Star Gaze
(30.9929°N, 90.9586°W)
Time: 21:36:55
(UTC-05:00)
Language:

H-2A R/B - Orbit

View from above orbital plane
View from above orbital plane
View from above satellite
View from above satellite

Ground track
Ground track

The orbit data is extracted from the following two-line orbital elements,

1 26899U 01038B   15183.19602257  .00003127  00000-0  10300-2 0  9995
2 26899 028.4017 355.2942 7136782 075.3372 112.3244 02.45809949118826
Epoch (UTC): 02 July 2015 04:42:16
Eccentricity: 0.7136782
inclination: 28.4017°
perigee height: 262 km
apogee height: 33365 km
right ascension of ascending node: 355.2942°
argument of perigee: 75.3372°
revolutions per day: 2.45809949
mean anomaly at epoch: 112.3244°
orbit number at epoch: 11882

The dashed part of the orbit path shows where the satellite is in the earth's shadow,  

DLR